Location: Balaclava NSW 2575, Australia
(34.4510°S, 150.4953°E)
Time: 16:42:03
(UTC+10:00)

Envisat - Pass Details

Date: 21 May 2021
Orbit: 764 x 766 km, 98.1° (Epoch: 18 June)

Event Time Altitude Azimuth Distance (km) Brightness Sun altitude
Rises 04:41:34 0° 12° (NNE) 3,216 6.5 -25.9°
Reaches altitude 10° 04:43:51 10° 12° (NNE) 2,298 5.7 -25.5°
Maximum altitude 04:48:56 85° 283° (WNW) 780 2.9 -24.4°
Enters shadow 04:50:47 41° 197° (SSW) 1,112 3.6 -24.1°
